| time (UTC) | temp F | wind direction | speed MPH | gust MPH | rain 1hr in | rain 24hr in | rain mn in | humidity % | barometer mb |
| 20260905201610 | 73 | 326 | 0.0 | 0.0 | 0.00 | 0.00 | 0.00 | 74 | 996.3 |
| 20260905201111 | 73 | 326 | 0.0 | 0.0 | 0.00 | 0.00 | 0.00 | 74 | 996.4 |
| 20260905200608 | 73 | 326 | 0.0 | 0.0 | 0.00 | 0.00 | 0.00 | 73 | 996.3 |
| 20260905200105 | 73 | 326 | 0.0 | 0.0 | 0.00 | 0.00 | 0.00 | 71 | 996.2 |
| 20260905195606 | 73 | 321 | 0.0 | 0.0 | 0.00 | 0.00 | 0.00 | 74 | 996.2 |
| 20260905195107 | 73 | 320 | 0.0 | 0.0 | 0.00 | 0.00 | 0.00 | 75 | 996.1 |
| 20260905194604 | 72 | 320 | 0.0 | 0.0 | 0.00 | 0.00 | 0.00 | 74 | 996.2 |
| 20260905194101 | 72 | 278 | 0.0 | 0.0 | 0.00 | 0.00 | 0.00 | 73 | 996.2 |
| 20260905193603 | 72 | 278 | 0.0 | 0.0 | 0.00 | 0.00 | 0.00 | 76 | 996.2 |
| 20260905193102 | 72 | 271 | 0.0 | 0.0 | 0.00 | 0.00 | 0.00 | 76 | 996.2 |
| 20260905192559 | 72 | 270 | 0.0 | 0.0 | 0.00 | 0.00 | 0.00 | 77 | 996.2 |
| 20260905192101 | 72 | 277 | 0.0 | 0.0 | 0.00 | 0.00 | 0.00 | 80 | 996.1 |
| 20260905191601 | 72 | 277 | 0.0 | 0.0 | 0.00 | 0.00 | 0.00 | 81 | 996.1 |
| 20260905191100 | 72 | 277 | 0.0 | 0.0 | 0.00 | 0.00 | 0.00 | 78 | 996.1 |
| 20260905190601 | 72 | 277 | 0.0 | 0.0 | 0.00 | 0.00 | 0.00 | 78 | 996.2 |
| 20260905190058 | 72 | 277 | 0.0 | 0.0 | 0.00 | 0.00 | 0.00 | 76 | 996.1 |
| 20260905185555 | 72 | 277 | 0.0 | 0.0 | 0.00 | 0.00 | 0.00 | 78 | 996.2 |
| 20260905185057 | 72 | 277 | 0.0 | 0.0 | 0.00 | 0.00 | 0.00 | 77 | 996.2 |
| 20260905184552 | 72 | 277 | 0.0 | 0.0 | 0.00 | 0.00 | 0.00 | 78 | 996.1 |
| 20260905184052 | 72 | 277 | 0.0 | 0.0 | 0.00 | 0.00 | 0.00 | 77 | 996.1 |
| 20260905183552 | 72 | 276 | 0.0 | 0.0 | 0.00 | 0.00 | 0.00 | 75 | 996.1 |
| 20260905182552 | 72 | 276 | 0.0 | 0.0 | 0.00 | 0.00 | 0.00 | 79 | 996.0 |
| 20260905181553 | 72 | 248 | 0.0 | 0.0 | 0.00 | 0.00 | 0.00 | 77 | 996.0 |
| 20260905181051 | 72 | 345 | 0.0 | 0.0 | 0.00 | 0.00 | 0.00 | 77 | 996.0 |
| 20260905180553 | 72 | 345 | 0.0 | 0.0 | 0.00 | 0.00 | 0.00 | 76 | 996.1 |
| 20260905180051 | 72 | 345 | 0.0 | 0.0 | 0.00 | 0.00 | 0.00 | 78 | 996.1 |
| 20260905175552 | 72 | 345 | 0.0 | 0.0 | 0.00 | 0.00 | 0.00 | 78 | 996.1 |
| 20260905175051 | 71 | 345 | 0.0 | 0.0 | 0.00 | 0.00 | 0.00 | 78 | 996.0 |
| 20260905174551 | 71 | 345 | 0.0 | 0.0 | 0.00 | 0.00 | 0.00 | 80 | 996.0 |
| 20260905174051 | 71 | 345 | 0.0 | 0.0 | 0.00 | 0.00 | 0.00 | 83 | 996.1 |
| 20260905173551 | 71 | 344 | 0.0 | 0.0 | 0.00 | 0.00 | 0.00 | 83 | 996.0 |
| 20260905173054 | 70 | 345 | 0.0 | 0.0 | 0.00 | 0.00 | 0.00 | 83 | 996.0 |
| 20260905172552 | 70 | 344 | 0.0 | 0.0 | 0.00 | 0.00 | 0.00 | 83 | 996.0 |
| 20260905172050 | 70 | 344 | 0.0 | 0.0 | 0.00 | 0.00 | 0.00 | 82 | 995.9 |
| 20260905171544 | 70 | 344 | 0.0 | 0.0 | 0.00 | 0.00 | 0.00 | 79 | 996.0 |
| 20260905171039 | 70 | 344 | 0.0 | 0.0 | 0.00 | 0.00 | 0.00 | 83 | 995.9 |
| 20260905170533 | 70 | 344 | 0.0 | 0.0 | 0.00 | 0.00 | 0.00 | 82 | 995.9 |
| 20260905170027 | 69 | 344 | 0.0 | 0.0 | 0.00 | 0.00 | 0.00 | 82 | 996.0 |
| 20260905165521 | 69 | 344 | 0.0 | 0.0 | 0.00 | 0.00 | 0.00 | 83 | 996.0 |
| 20260905163457 | 69 | 336 | 0.0 | 0.0 | 0.00 | 0.00 | 0.00 | 83 | 996.1 |
| 20260905162950 | 69 | 336 | 0.0 | 0.0 | 0.00 | 0.00 | 0.00 | 84 | 996.1 |
| 20260905162445 | 69 | 333 | 0.0 | 0.0 | 0.00 | 0.00 | 0.00 | 84 | 996.0 |
| 20260905161939 | 70 | 333 | 0.0 | 0.0 | 0.00 | 0.00 | 0.00 | 84 | 996.1 |
| 20260905161433 | 70 | 333 | 0.0 | 0.0 | 0.00 | 0.00 | 0.00 | 83 | 996.1 |
| 20260905160927 | 70 | 333 | 0.0 | 0.0 | 0.00 | 0.00 | 0.00 | 81 | 996.1 |
| 20260905160421 | 70 | 333 | 0.0 | 0.0 | 0.00 | 0.00 | 0.00 | 80 | 996.1 |
| 20260905155915 | 70 | 333 | 0.0 | 0.0 | 0.00 | 0.00 | 0.00 | 79 | 996.1 |
| 20260905155409 | 70 | 335 | 0.0 | 0.0 | 0.00 | 0.00 | 0.00 | 80 | 996.1 |
| 20260905154902 | 70 | 333 | 0.0 | 0.0 | 0.00 | 0.00 | 0.00 | 80 | 996.1 |
| 20260905154357 | 70 | 333 | 0.0 | 0.0 | 0.00 | 0.00 | 0.00 | 81 | 996.1 |
| 20260905152839 | 68 | 73 | 0.0 | 0.0 | 0.00 | 0.00 | 0.00 | 81 | 996.2 |
| 20260905152332 | 68 | 123 | 0.0 | 0.0 | 0.00 | 0.00 | 0.00 | 84 | 996.2 |
| 20260905151827 | 68 | 123 | 0.0 | 0.0 | 0.00 | 0.00 | 0.00 | 86 | 996.2 |
| 20260905151320 | 68 | 123 | 0.0 | 0.0 | 0.00 | 0.00 | 0.00 | 84 | 996.2 |
| 20260905150309 | 68 | 123 | 0.0 | 0.0 | 0.00 | 0.00 | 0.00 | 85 | 996.2 |
| 20260905145803 | 68 | 123 | 0.0 | 0.0 | 0.00 | 0.00 | 0.00 | 85 | 996.1 |
| 20260905145257 | 68 | 123 | 0.0 | 0.0 | 0.00 | 0.00 | 0.00 | 85 | 996.1 |
| 20260905144245 | 68 | 123 | 0.0 | 0.0 | 0.00 | 0.00 | 0.00 | 86 | 996.2 |
| 20260905143739 | 68 | 123 | 0.0 | 0.0 | 0.00 | 0.00 | 0.00 | 87 | 996.2 |
| 20260905143233 | 68 | 123 | 0.0 | 0.0 | 0.00 | 0.00 | 0.00 | 86 | 996.2 |
| 20260905142221 | 68 | 123 | 0.0 | 0.0 | 0.00 | 0.00 | 0.00 | 86 | 996.2 |
| 20260905141715 | 67 | 123 | 0.0 | 0.0 | 0.00 | 0.00 | 0.00 | 87 | 996.1 |
| 20260905141209 | 67 | 123 | 0.0 | 0.0 | 0.00 | 0.00 | 0.00 | 88 | 996.2 |
| 20260905140703 | 67 | 123 | 0.0 | 0.0 | 0.00 | 0.00 | 0.00 | 88 | 996.1 |
| 20260905140157 | 67 | 123 | 0.0 | 0.0 | 0.00 | 0.00 | 0.00 | 88 | 996.1 |
| 20260905135651 | 67 | 123 | 0.0 | 0.0 | 0.00 | 0.00 | 0.00 | 87 | 996.1 |
| 20260905135145 | 66 | 123 | 0.0 | 0.0 | 0.00 | 0.00 | 0.00 | 88 | 996.1 |
| 20260905134639 | 66 | 123 | 0.0 | 0.0 | 0.00 | 0.00 | 0.00 | 88 | 996.1 |
| 20260905133627 | 65 | 123 | 0.0 | 0.0 | 0.00 | 0.00 | 0.00 | 89 | 996.0 |
| 20260905133120 | 65 | 123 | 0.0 | 0.0 | 0.00 | 0.00 | 0.00 | 89 | 995.9 |
| 20260905132614 | 65 | 123 | 0.0 | 0.0 | 0.00 | 0.00 | 0.00 | 89 | 995.9 |
| 20260905132109 | 64 | 123 | 0.0 | 0.0 | 0.00 | 0.00 | 0.00 | 89 | 995.9 |
| 20260905131602 | 64 | 123 | 0.0 | 0.0 | 0.00 | 0.00 | 0.00 | 89 | 995.8 |
| 20260905131057 | 64 | 123 | 0.0 | 0.0 | 0.00 | 0.00 | 0.00 | 90 | 995.8 |
| 20260905130045 | 63 | 123 | 0.0 | 0.0 | 0.00 | 0.00 | 0.00 | 90 | 995.8 |
| 20260905125538 | 63 | 120 | 0.0 | 0.0 | 0.00 | 0.00 | 0.00 | 91 | 995.8 |
| 20260905124527 | 62 | 121 | 0.0 | 0.0 | 0.00 | 0.00 | 0.00 | 92 | 995.8 |
| 20260905124021 | 62 | 120 | 0.0 | 0.0 | 0.00 | 0.00 | 0.00 | 92 | 995.7 |
| 20260905123514 | 61 | 120 | 0.0 | 0.0 | 0.00 | 0.00 | 0.00 | 92 | 995.7 |
| 20260905123009 | 61 | 120 | 0.0 | 0.0 | 0.00 | 0.00 | 0.00 | 92 | 995.7 |
| 20260905122002 | 61 | 139 | 0.0 | 0.0 | 0.00 | 0.00 | 0.00 | 92 | 995.6 |
| 20260905121001 | 60 | 139 | 0.0 | 0.0 | 0.00 | 0.00 | 0.00 | 92 | 995.6 |
| 20260905120459 | 60 | 139 | 0.0 | 0.0 | 0.00 | 0.00 | 0.00 | 92 | 995.5 |
| 20260905114957 | 60 | 139 | 0.0 | 0.0 | 0.00 | 0.00 | 0.00 | 92 | 995.5 |
| 20260905114458 | 60 | 139 | 0.0 | 0.0 | 0.00 | 0.00 | 0.00 | 92 | 995.5 |
| 20260905113957 | 60 | 139 | 0.0 | 0.0 | 0.00 | 0.00 | 0.00 | 92 | 995.5 |
| 20260905113456 | 60 | 139 | 0.0 | 0.0 | 0.00 | 0.00 | 0.00 | 92 | 995.5 |
| 20260905112957 | 59 | 139 | 0.0 | 0.0 | 0.00 | 0.00 | 0.00 | 92 | 995.4 |
| 20260905112457 | 59 | 139 | 0.0 | 0.0 | 0.00 | 0.00 | 0.00 | 92 | 995.4 |
| 20260905111956 | 59 | 139 | 0.0 | 0.0 | 0.00 | 0.00 | 0.00 | 92 | 995.3 |
| 20260905111457 | 59 | 139 | 0.0 | 0.0 | 0.00 | 0.00 | 0.00 | 92 | 995.3 |
| 20260905110958 | 59 | 139 | 0.0 | 0.0 | 0.00 | 0.00 | 0.00 | 92 | 995.3 |
| 20260905110453 | 59 | 139 | 0.0 | 0.0 | 0.00 | 0.00 | 0.00 | 92 | 995.3 |
| 20260905105953 | 58 | 139 | 0.0 | 0.0 | 0.00 | 0.00 | 0.00 | 92 | 995.3 |
| 20260905105454 | 58 | 139 | 0.0 | 0.0 | 0.00 | 0.00 | 0.00 | 92 | 995.2 |
| 20260905104954 | 58 | 139 | 0.0 | 0.0 | 0.00 | 0.00 | 0.00 | 92 | 995.2 |
| 20260905104454 | 58 | 139 | 0.0 | 0.0 | 0.00 | 0.00 | 0.00 | 92 | 995.2 |
| 20260905103952 | 58 | 139 | 0.0 | 0.0 | 0.00 | 0.00 | 0.00 | 92 | 995.2 |
| 20260905103453 | 58 | 139 | 0.0 | 0.0 | 0.00 | 0.00 | 0.00 | 92 | 995.2 |
| 20260905102953 | 58 | 139 | 0.0 | 0.0 | 0.00 | 0.00 | 0.00 | 92 | 995.3 |
| 20260905102454 | 58 | 139 | 0.0 | 0.0 | 0.00 | 0.00 | 0.00 | 92 | 995.2 |
| 20260905101954 | 58 | 139 | 0.0 | 0.0 | 0.00 | 0.00 | 0.00 | 92 | 995.2 |
| 20260905100454 | 58 | 139 | 0.0 | 0.0 | 0.00 | 0.00 | 0.00 | 91 | 995.1 |
| 20260905095952 | 58 | 139 | 0.0 | 0.0 | 0.00 | 0.00 | 0.00 | 91 | 995.0 |
| 20260905095453 | 58 | 139 | 0.0 | 0.0 | 0.00 | 0.00 | 0.00 | 91 | 995.0 |
| 20260905094952 | 59 | 139 | 0.0 | 0.0 | 0.00 | 0.00 | 0.00 | 91 | 994.9 |
| 20260905094453 | 59 | 139 | 0.0 | 0.0 | 0.00 | 0.00 | 0.00 | 91 | 994.8 |
| 20260905093951 | 59 | 139 | 0.0 | 0.0 | 0.00 | 0.00 | 0.00 | 91 | 994.9 |
| 20260905093444 | 59 | 139 | 0.0 | 0.0 | 0.00 | 0.00 | 0.00 | 91 | 994.8 |
| 20260905092939 | 59 | 139 | 0.0 | 0.0 | 0.00 | 0.00 | 0.00 | 91 | 994.9 |
| 20260905092433 | 59 | 139 | 0.0 | 0.0 | 0.00 | 0.00 | 0.00 | 91 | 994.8 |
| 20260905091926 | 59 | 139 | 0.0 | 0.0 | 0.00 | 0.00 | 0.00 | 91 | 994.8 |
| 20260905091420 | 59 | 139 | 0.0 | 0.0 | 0.00 | 0.00 | 0.00 | 91 | 994.8 |
| 20260905090915 | 59 | 139 | 0.0 | 0.0 | 0.00 | 0.00 | 0.00 | 91 | 994.8 |
| 20260905090409 | 59 | 139 | 0.0 | 0.0 | 0.00 | 0.00 | 0.00 | 91 | 994.7 |
| 20260905085903 | 59 | 139 | 0.0 | 0.0 | 0.00 | 0.00 | 0.00 | 91 | 994.7 |
| 20260905084850 | 59 | 139 | 0.0 | 0.0 | 0.00 | 0.00 | 0.00 | 91 | 994.7 |
| 20260905084344 | 59 | 139 | 0.0 | 0.0 | 0.00 | 0.00 | 0.00 | 91 | 994.6 |
| 20260905083838 | 59 | 139 | 0.0 | 0.0 | 0.00 | 0.00 | 0.00 | 91 | 994.6 |
| 20260905083332 | 59 | 139 | 0.0 | 0.0 | 0.00 | 0.00 | 0.00 | 91 | 994.6 |
| 20260905082827 | 59 | 139 | 0.0 | 0.0 | 0.00 | 0.00 | 0.00 | 91 | 994.6 |
| 20260905082321 | 59 | 139 | 0.0 | 0.0 | 0.00 | 0.00 | 0.00 | 91 | 994.6 |
| 20260905081814 | 59 | 139 | 0.0 | 0.0 | 0.00 | 0.00 | 0.00 | 91 | 994.6 |
| 20260905081308 | 59 | 139 | 0.0 | 0.0 | 0.00 | 0.00 | 0.00 | 91 | 994.6 |
| 20260905080803 | 59 | 139 | 0.0 | 0.0 | 0.00 | 0.00 | 0.00 | 91 | 994.6 |
| 20260905080256 | 59 | 139 | 0.0 | 0.0 | 0.00 | 0.00 | 0.00 | 91 | 994.5 |
| 20260905075751 | 59 | 139 | 0.0 | 0.0 | 0.00 | 0.00 | 0.00 | 91 | 994.5 |
| 20260905075244 | 59 | 139 | 0.0 | 0.0 | 0.00 | 0.00 | 0.00 | 91 | 994.5 |
| 20260905074738 | 59 | 139 | 0.0 | 0.0 | 0.00 | 0.00 | 0.00 | 91 | 994.6 |
| 20260905073727 | 59 | 139 | 0.0 | 0.0 | 0.00 | 0.00 | 0.00 | 91 | 994.8 |
| 20260905073221 | 59 | 139 | 0.0 | 0.0 | 0.00 | 0.00 | 0.00 | 91 | 994.8 |
| 20260905072209 | 59 | 139 | 0.0 | 0.0 | 0.00 | 0.00 | 0.00 | 91 | 994.9 |
| 20260905071702 | 59 | 139 | 0.0 | 0.0 | 0.00 | 0.00 | 0.00 | 91 | 994.8 |
| 20260905071157 | 59 | 139 | 0.0 | 0.0 | 0.00 | 0.00 | 0.00 | 91 | 994.8 |
| 20260905070651 | 59 | 139 | 0.0 | 0.0 | 0.00 | 0.00 | 0.00 | 91 | 994.9 |
| 20260905070145 | 59 | 139 | 0.0 | 0.0 | 0.00 | 0.00 | 0.00 | 91 | 995.0 |
| 20260905065639 | 59 | 139 | 0.0 | 0.0 | 0.00 | 0.00 | 0.00 | 90 | 995.1 |
| 20260905065133 | 59 | 139 | 0.0 | 0.0 | 0.00 | 0.00 | 0.00 | 90 | 995.1 |
| 20260905064627 | 59 | 139 | 0.0 | 0.0 | 0.00 | 0.00 | 0.00 | 90 | 995.2 |
| 20260905063615 | 59 | 139 | 0.0 | 0.0 | 0.00 | 0.00 | 0.00 | 90 | 995.3 |
| 20260905063108 | 59 | 139 | 0.0 | 0.0 | 0.00 | 0.00 | 0.00 | 90 | 995.3 |
| 20260905062602 | 59 | 139 | 0.0 | 0.0 | 0.00 | 0.00 | 0.00 | 90 | 995.2 |
| 20260905062057 | 59 | 139 | 0.0 | 0.0 | 0.00 | 0.00 | 0.00 | 90 | 995.2 |
| 20260905061551 | 60 | 139 | 0.0 | 0.0 | 0.00 | 0.00 | 0.00 | 90 | 995.2 |
| 20260905061044 | 60 | 139 | 0.0 | 0.0 | 0.00 | 0.00 | 0.00 | 89 | 995.2 |
| 20260905060538 | 60 | 139 | 0.0 | 0.0 | 0.00 | 0.00 | 0.00 | 90 | 995.3 |
| 20260905060033 | 60 | 139 | 0.0 | 0.0 | 0.00 | 0.00 | 0.00 | 90 | 995.3 |
| 20260905055527 | 60 | 139 | 0.0 | 0.0 | 0.00 | 0.00 | 0.00 | 89 | 995.3 |
| 20260905055021 | 60 | 139 | 0.0 | 0.0 | 0.00 | 0.00 | 0.00 | 89 | 995.4 |
| 20260905053503 | 60 | 139 | 0.0 | 0.0 | 0.00 | 0.00 | 0.00 | 89 | 995.3 |
| 20260905052451 | 61 | 139 | 0.0 | 0.0 | 0.00 | 0.00 | 0.00 | 89 | 995.5 |
| 20260905051945 | 61 | 139 | 0.0 | 0.0 | 0.00 | 0.00 | 0.00 | 89 | 995.5 |
| 20260905051439 | 61 | 139 | 0.0 | 0.0 | 0.00 | 0.00 | 0.00 | 89 | 995.5 |
| 20260905050932 | 61 | 139 | 0.0 | 0.0 | 0.00 | 0.00 | 0.00 | 89 | 995.5 |
| 20260905050426 | 61 | 139 | 0.0 | 0.0 | 0.00 | 0.00 | 0.00 | 89 | 995.5 |
| 20260905045921 | 61 | 139 | 0.0 | 0.0 | 0.00 | 0.00 | 0.00 | 89 | 995.5 |
| 20260905045415 | 61 | 139 | 0.0 | 0.0 | 0.00 | 0.00 | 0.00 | 89 | 995.5 |
| 20260905044908 | 61 | 139 | 0.0 | 0.0 | 0.00 | 0.00 | 0.00 | 89 | 995.4 |
| 20260905044403 | 61 | 139 | 0.0 | 0.0 | 0.00 | 0.00 | 0.00 | 89 | 995.3 |
| 20260905043857 | 61 | 139 | 0.0 | 0.0 | 0.00 | 0.00 | 0.00 | 89 | 995.4 |
| 20260905043351 | 61 | 139 | 0.0 | 0.0 | 0.00 | 0.00 | 0.00 | 88 | 995.4 |
| 20260905042844 | 62 | 139 | 0.0 | 0.0 | 0.00 | 0.00 | 0.00 | 88 | 995.4 |
| 20260905042338 | 62 | 139 | 0.0 | 0.0 | 0.00 | 0.00 | 0.00 | 89 | 995.3 |
| 20260905041833 | 62 | 139 | 0.0 | 0.0 | 0.00 | 0.00 | 0.00 | 88 | 995.2 |
| 20260905041327 | 62 | 139 | 0.0 | 0.0 | 0.00 | 0.00 | 0.00 | 89 | 995.2 |
| 20260905040820 | 62 | 139 | 0.0 | 0.0 | 0.00 | 0.00 | 0.00 | 89 | 995.2 |
| 20260905040315 | 62 | 139 | 0.0 | 0.0 | 0.00 | 0.00 | 0.00 | 88 | 995.3 |
| 20260905035809 | 62 | 139 | 0.0 | 0.0 | 0.00 | 0.00 | 0.00 | 88 | 995.2 |
| 20260905035306 | 62 | 139 | 0.0 | 0.0 | 0.00 | 0.00 | 0.00 | 88 | 995.3 |
| 20260905034757 | 62 | 139 | 0.0 | 0.0 | 0.00 | 0.00 | 0.00 | 88 | 995.3 |
| 20260905033747 | 63 | 139 | 0.0 | 0.0 | 0.00 | 0.00 | 0.00 | 87 | 995.3 |
| 20260905033240 | 63 | 139 | 0.0 | 0.0 | 0.00 | 0.00 | 0.00 | 87 | 995.1 |
| 20260905032228 | 64 | 139 | 0.0 | 0.0 | 0.00 | 0.00 | 0.00 | 87 | 995.2 |
| 20260905031216 | 64 | 139 | 0.0 | 0.0 | 0.00 | 0.00 | 0.00 | 87 | 995.3 |
| 20260905025706 | 64 | 139 | 0.0 | 0.0 | 0.00 | 0.00 | 0.00 | 87 | 995.3 |
| 20260905025205 | 64 | 139 | 0.0 | 0.0 | 0.00 | 0.00 | 0.00 | 88 | 995.3 |
| 20260905024704 | 64 | 139 | 0.0 | 0.0 | 0.00 | 0.00 | 0.00 | 88 | 995.3 |
| 20260905024205 | 64 | 139 | 0.0 | 0.0 | 0.00 | 0.00 | 0.00 | 87 | 995.3 |
| 20260905023705 | 64 | 139 | 0.0 | 0.0 | 0.00 | 0.00 | 0.00 | 86 | 995.4 |
| 20260905023205 | 64 | 139 | 0.0 | 0.0 | 0.00 | 0.00 | 0.00 | 86 | 995.4 |
| 20260905022203 | 64 | 139 | 0.0 | 0.0 | 0.00 | 0.00 | 0.00 | 87 | 995.6 |
| 20260905021157 | 64 | 139 | 0.0 | 0.0 | 0.00 | 0.00 | 0.00 | 87 | 995.5 |
| 20260905020655 | 64 | 139 | 0.0 | 0.0 | 0.00 | 0.00 | 0.00 | 87 | 995.7 |
| 20260905020153 | 64 | 139 | 0.0 | 0.0 | 0.00 | 0.00 | 0.00 | 87 | 995.7 |
| 20260905015652 | 64 | 139 | 0.0 | 0.0 | 0.00 | 0.00 | 0.00 | 87 | 995.6 |
| 20260905014648 | 64 | 139 | 0.0 | 0.0 | 0.00 | 0.00 | 0.00 | 87 | 995.7 |
| 20260905014148 | 64 | 139 | 0.0 | 0.0 | 0.00 | 0.00 | 0.00 | 87 | 995.8 |
| 20260905013644 | 64 | 139 | 0.0 | 0.0 | 0.00 | 0.00 | 0.00 | 86 | 995.7 |
| 20260905013145 | 64 | 139 | 0.0 | 0.0 | 0.00 | 0.00 | 0.00 | 86 | 995.7 |
| 20260905012141 | 64 | 139 | 0.0 | 0.0 | 0.00 | 0.00 | 0.00 | 86 | 995.8 |
| 20260905011640 | 65 | 139 | 0.0 | 0.0 | 0.00 | 0.00 | 0.00 | 86 | 995.7 |
| 20260905011141 | 65 | 139 | 0.0 | 0.0 | 0.00 | 0.00 | 0.00 | 86 | 995.7 |
| 20260905010641 | 65 | 139 | 0.0 | 0.0 | 0.00 | 0.00 | 0.00 | 86 | 995.6 |
| 20260905010140 | 65 | 139 | 0.0 | 0.0 | 0.00 | 0.00 | 0.00 | 85 | 995.6 |
| 20260905005140 | 66 | 139 | 0.0 | 0.0 | 0.00 | 0.00 | 0.00 | 84 | 995.7 |
| 20260905004641 | 66 | 139 | 0.0 | 0.0 | 0.00 | 0.00 | 0.00 | 85 | 995.7 |
| 20260905004138 | 66 | 139 | 0.0 | 0.0 | 0.00 | 0.00 | 0.00 | 83 | 995.7 |
| 20260905003138 | 66 | 139 | 0.0 | 0.0 | 0.00 | 0.00 | 0.00 | 82 | 995.8 |
| 20260905002637 | 67 | 139 | 0.0 | 0.0 | 0.00 | 0.00 | 0.00 | 83 | 995.7 |
| 20260905002137 | 67 | 139 | 0.0 | 0.0 | 0.00 | 0.00 | 0.00 | 83 | 995.8 |
| 20260905001637 | 67 | 139 | 0.0 | 0.0 | 0.00 | 0.00 | 0.00 | 83 | 995.7 |
| 20260905001137 | 67 | 139 | 0.0 | 0.0 | 0.00 | 0.00 | 0.00 | 81 | 995.6 |
| 20260904235631 | 68 | 139 | 0.0 | 0.0 | 0.00 | 0.00 | 0.00 | 80 | 995.4 |
| 20260904235125 | 68 | 139 | 0.0 | 0.0 | 0.00 | 0.00 | 0.00 | 80 | 995.4 |
| 20260904234618 | 68 | 139 | 0.0 | 0.0 | 0.00 | 0.00 | 0.00 | 80 | 995.3 |
| 20260904234112 | 69 | 139 | 0.0 | 0.0 | 0.00 | 0.00 | 0.00 | 80 | 995.3 |
| 20260904233607 | 69 | 139 | 0.0 | 0.0 | 0.00 | 0.00 | 0.00 | 79 | 995.3 |
| 20260904233101 | 69 | 139 | 0.0 | 0.0 | 0.00 | 0.00 | 0.00 | 79 | 995.2 |
| 20260904232554 | 70 | 139 | 0.0 | 0.0 | 0.00 | 0.00 | 0.00 | 79 | 995.1 |
| 20260904232048 | 70 | 139 | 0.0 | 0.0 | 0.00 | 0.00 | 0.00 | 78 | 995.1 |
| 20260904231037 | 71 | 139 | 0.0 | 0.0 | 0.00 | 0.00 | 0.00 | 78 | 995.1 |
| 20260904230530 | 71 | 139 | 0.0 | 0.0 | 0.00 | 0.00 | 0.00 | 80 | 995.1 |
| 20260904230025 | 71 | 139 | 0.0 | 0.0 | 0.00 | 0.00 | 0.00 | 79 | 995.1 |
| 20260904225518 | 72 | 139 | 0.0 | 0.0 | 0.00 | 0.00 | 0.00 | 77 | 995.1 |
| 20260904225013 | 72 | 139 | 0.0 | 0.0 | 0.00 | 0.00 | 0.00 | 79 | 995.1 |
| 20260904224506 | 73 | 139 | 0.0 | 0.0 | 0.00 | 0.00 | 0.00 | 78 | 995.0 |
| 20260904223454 | 74 | 139 | 0.0 | 0.0 | 0.00 | 0.00 | 0.00 | 74 | 994.8 |
| 20260904221937 | 74 | 138 | 0.0 | 0.0 | 0.00 | 0.00 | 0.00 | 67 | 994.9 |
| 20260904221430 | 75 | 147 | 0.0 | 0.0 | 0.00 | 0.00 | 0.00 | 69 | 994.8 |
| 20260904220925 | 75 | 147 | 0.0 | 0.0 | 0.00 | 0.00 | 0.00 | 68 | 994.8 |
| 20260904220418 | 75 | 147 | 0.0 | 0.0 | 0.00 | 0.00 | 0.00 | 67 | 994.8 |
| 20260904215407 | 76 | 146 | 0.0 | 0.0 | 0.00 | 0.00 | 0.00 | 65 | 994.8 |
| 20260904214901 | 76 | 146 | 0.0 | 0.0 | 0.00 | 0.00 | 0.00 | 64 | 994.8 |
| 20260904214355 | 76 | 147 | 0.0 | 0.0 | 0.00 | 0.00 | 0.00 | 63 | 994.8 |
| 20260904213343 | 77 | 140 | 0.0 | 0.0 | 0.00 | 0.00 | 0.00 | 66 | 994.7 |
| 20260904212837 | 77 | 156 | 0.0 | 2.0 | 0.00 | 0.00 | 0.00 | 63 | 994.7 |
| 20260904212331 | 77 | 88 | 0.0 | 2.0 | 0.00 | 0.00 | 0.00 | 61 | 994.7 |
| 20260904211824 | 77 | 287 | 0.0 | 2.0 | 0.00 | 0.00 | 0.00 | 62 | 994.6 |
| 20260904205800 | 77 | 101 | 0.0 | 2.0 | 0.00 | 0.00 | 0.00 | 62 | 994.7 |
| 20260904205255 | 77 | 350 | 0.0 | 4.0 | 0.00 | 0.00 | 0.00 | 62 | 994.7 |
| 20260904204749 | 77 | 355 | 0.0 | 4.0 | 0.00 | 0.00 | 0.00 | 62 | 994.6 |
| 20260904204243 | 77 | 173 | 1.0 | 3.0 | 0.00 | 0.00 | 0.00 | 64 | 994.5 |
| 20260904203736 | 77 | 127 | 1.0 | 2.0 | 0.00 | 0.00 | 0.00 | 64 | 994.6 |
| 20260904203231 | 77 | 86 | 0.0 | 3.0 | 0.00 | 0.00 | 0.00 | 67 | 994.6 |
| 20260904202726 | 77 | 86 | 1.0 | 3.0 | 0.00 | 0.00 | 0.00 | 64 | 994.5 |
| 20260904202218 | 77 | 80 | 0.0 | 2.0 | 0.00 | 0.00 | 0.00 | 62 | 994.5 |
| 20260904201713 | 77 | 92 | 0.0 | 2.0 | 0.00 | 0.00 | 0.00 | 62 | 994.4 |